Location: Home
(40.5300°N, 105.0300°W)
Time: 02:53:37
(UTC-06:00)

Tianhe-1 - Visible Passes

Search period start: 19 June 2021 00:00
Search period end: 29 June 2021 00:00
Orbit: 375 x 386 km, 41.5° (Epoch: 18 June)

Date Brightness Start Highest point End Pass type
(mag) Time Alt. Az. Time Alt. Az. Time Alt. Az.
19 Jun 3.0 03:56:19 17° SSE 03:57:01 18° SSE 03:59:14 10° ESE visible
20 Jun 1.6 04:30:09 15° SW 04:32:30 45° SSE 04:35:33 10° E visible
21 Jun 2.3 03:31:49 28° SE 03:31:49 28° SE 03:34:23 10° E visible
22 Jun 1.0 04:05:34 25° WSW 04:07:12 68° SSE 04:10:20 10° E visible
23 Jun 2.3 03:07:11 32° ESE 03:07:11 32° ESE 03:09:16 10° E visible
23 Jun 1.2 04:39:48 10° W 04:42:56 75° N 04:46:05 10° E visible
24 Jun 0.9 03:40:54 40° W 03:41:53 90° WSW 03:45:03 10° E visible
25 Jun 2.9 02:42:31 25° E 02:42:31 25° E 02:43:59 10° E visible
25 Jun 1.2 04:14:38 11° W 04:17:39 71° N 04:20:48 10° E visible
26 Jun 1.1 03:16:18 68° WNW 03:16:34 76° N 03:19:42 10° E visible
26 Jun 1.0 04:50:14 10° W 04:53:23 88° S 04:56:32 10° ESE visible
27 Jun 3.8 02:18:02 15° E 02:18:02 15° E 02:18:37 10° E visible
27 Jun 1.1 03:50:09 18° W 03:52:18 76° N 03:55:26 10° E visible
28 Jun 2.0 02:52:02 43° ENE 02:52:02 43° ENE 02:54:19 10° E visible
28 Jun 1.0 04:24:51 10° W 04:27:58 66° SSW 04:31:04 10° ESE visible
